This is the latest recevied weather packets stored in our database for station/object W1LBM. If no packets are shown the sender has not sent any weather packets the latest 10 day(s).
| Time | Temp. | Humidity | Pressure | Rain* | Wind** | Luminosity | Snow |
|---|---|---|---|---|---|---|---|
| 1778026302 | 17.22° C | 66% | 1013.5 hPa | 0 mm | - | 0 W/m² | - |
| 1778025999 | 17.22° C | 66% | 1013.4 hPa | 0 mm | - | 0 W/m² | - |
| 1778025696 | 17.22° C | 66% | 1013.3 hPa | 0 mm | - | 0 W/m² | - |
| 1778025395 | 17.22° C | 66% | 1013.2 hPa | 0 mm | - | 1 W/m² | - |
| 1778025091 | 17.22° C | 65% | 1013 hPa | 0 mm | - | 1 W/m² | - |
| 1778024788 | 17.78° C | 65% | 1013.1 hPa | 0 mm | - | 3 W/m² | - |
| 1778024485 | 17.78° C | 64% | 1013.2 hPa | 0 mm | - | 4 W/m² | - |
| 1778024183 | 17.78° C | 64% | 1012.9 hPa | 0 mm | - | 7 W/m² | - |
| 1778023880 | 18.33° C | 63% | 1012.9 hPa | 0 mm | - | 10 W/m² | - |
| 1778023577 | 18.33° C | 62% | 1012.8 hPa | 0 mm | - | 14 W/m² | - |
| 1778023275 | 18.33° C | 62% | 1012.8 hPa | 0 mm | - | 17 W/m² | - |
| 1778022972 | 18.89° C | 62% | 1012.6 hPa | 0 mm | - | 21 W/m² | - |
| 1778022670 | 18.89° C | 61% | 1012.5 hPa | 0 mm | - | 26 W/m² | - |
| 1778022368 | 18.89° C | 60% | 1012.4 hPa | 0 mm | - | 32 W/m² | - |
| 1778022064 | 19.44° C | 60% | 1012.2 hPa | 0 mm | - | 40 W/m² | - |
| 1778021760 | 19.44° C | 59% | 1012.2 hPa | 0 mm | - | 45 W/m² | - |
| 1778021456 | 19.44° C | 58% | 1012.2 hPa | 0 mm | - | 53 W/m² | - |
| 1778021154 | 20° C | 57% | 1012 hPa | 0 mm | - | 55 W/m² | - |
| 1778020851 | 20° C | 56% | 1012.1 hPa | 0 mm | - | 60 W/m² | - |
| 1778020548 | 20° C | 58% | 1012.1 hPa | 0 mm | - | 62 W/m² | - |
| 1778020244 | 19.44° C | 58% | 1012.2 hPa | 0 mm | - | 65 W/m² | - |
| 1778019940 | 18.89° C | 61% | 1012.1 hPa | 0 mm | - | 72 W/m² | - |
| 1778019637 | 18.89° C | 61% | 1012.1 hPa | 0 mm | - | 67 W/m² | - |
| 1778019334 | 18.89° C | 61% | 1012 hPa | 0 mm | - | 67 W/m² | - |
| 1778019030 | 18.89° C | 62% | 1012 hPa | 0 mm | - | 72 W/m² | - |
* Rain latest hour (hover to see other rain measurements)
** Current wind speed in m/s (hover to see current wind gust speed)